Location: Trebic
(49.2170°N, 15.8830°E)
Time: 11:37:27
(UTC+02:00)

Transit 4A - Pass Details

Date: 25 August 2019
Orbit: 865 x 980 km, 66.8° (Epoch: 14 September)

Event Time Altitude Azimuth Distance (km) Brightness Sun altitude
Rises 16:50:28 0° 159° (SSE) 3,662 11.0 28.8°
Reaches altitude 10° 16:54:00 10° 140° (SE) 2,725 10.2 28.2°
Maximum altitude 16:57:49 17° 103° (ESE) 2,278 9.6 27.6°
Drops below altitude 10° 17:01:37 10° 66° (ENE) 2,731 9.9 27.0°
Sets 17:05:08 0° 47° (NE) 3,674 10.5 26.5°
